FW2156 Weather Reports


Display with metric or nautical units.
time (UTC)temp
F
wind
direction
speed
MPH
gust
MPH
rain 1hr
in
rain 24hr
in
rain mn
in
humidity
%
barometer
mb
20260906194438 53 187 0.0 0.0 0.00 0.00 0.06 99 1014.9
20260906193941 53 121 1.0 1.0 0.00 0.00 0.06 99 1014.9
20260906193441 53 98 0.0 1.0 0.00 0.00 0.06 99 1014.9
20260906192942 52 179 0.0 0.0 0.00 0.00 0.06 99 1014.9
20260906192438 52 172 0.0 0.0 0.00 0.00 0.06 99 1014.9
20260906191945 52 121 1.0 3.0 0.00 0.00 0.06 99 1014.9
20260906191440 52 191 0.0 0.0 0.00 0.00 0.06 99 1014.9
20260906190937 52 116 1.0 1.0 0.00 0.00 0.06 99 1015.2
20260906190441 51 167 0.0 1.0 0.00 0.00 0.06 99 1015.2
20260906185911 51 135 0.0 0.0 0.00 0.00 0.06 99 1015.2
20260906185420 51 113 2.0 2.0 0.00 0.00 0.06 99 1015.2
20260906184912 51 108 3.0 3.0 0.00 0.00 0.06 99 1015.2
20260906184414 51 167 2.0 2.0 0.00 0.00 0.06 99 1015.2
20260906183912 51 126 1.0 2.0 0.00 0.00 0.06 99 1015.2
20260906183413 51 160 0.0 0.0 0.00 0.00 0.06 99 1015.2
20260906182914 51 112 2.0 3.0 0.00 0.00 0.05 99 1015.2
20260906182412 51 136 2.0 2.0 0.00 0.00 0.05 99 1015.2
20260906181912 51 128 1.0 1.0 0.00 0.00 0.05 99 1015.2
20260906181413 50 127 2.0 2.0 0.00 0.00 0.05 99 1015.2
20260906180911 50 170 0.0 1.0 0.00 0.00 0.05 99 1015.2
20260906180411 50 157 0.0 0.0 0.00 0.00 0.05 99 1015.2
20260906175912 50 185 0.0 0.0 0.00 0.00 0.05 99 1015.2
20260906175411 50 107 0.0 1.0 0.00 0.00 0.05 99 1015.6
20260906174913 50 23 0.0 0.0 0.00 0.00 0.05 99 1015.6
20260906174412 50 12 1.0 1.0 0.00 0.00 0.05 99 1015.6
20260906173912 49 152 0.0 0.0 0.00 0.00 0.05 99 1015.6
20260906173413 49 214 0.0 0.0 0.00 0.00 0.05 99 1015.6
20260906172911 49 180 0.0 0.0 0.00 0.00 0.05 99 1015.6
20260906172414 49 194 0.0 0.0 0.00 0.00 0.05 99 1015.6
20260906171914 49 177 0.0 0.0 0.00 0.00 0.04 99 1015.9
20260906171413 49 177 0.0 0.0 0.00 0.00 0.04 99 1015.6
20260906170914 49 229 0.0 0.0 0.00 0.00 0.03 99 1015.9
20260906170415 49 221 0.0 0.0 0.00 0.00 0.03 99 1015.9
20260906165912 49 250 0.0 0.0 0.00 0.00 0.03 99 1015.9
20260906165414 49 215 0.0 0.0 0.00 0.00 0.03 99 1015.6
20260906164839 48 224 0.0 0.0 0.00 0.00 0.03 99 1015.9
20260906164315 48 6 0.0 0.0 0.00 0.00 0.03 99 1015.9
20260906163813 48 187 0.0 0.0 0.00 0.00 0.03 99 1015.9
20260906163212 48 156 0.0 0.0 0.00 0.00 0.03 99 1016.3
20260906162714 48 178 0.0 0.0 0.00 0.00 0.03 99 1016.3
20260906162219 48 153 0.0 0.0 0.00 0.00 0.03 99 1016.3
20260906161710 48 255 0.0 0.0 0.00 0.00 0.03 99 1016.3
20260906161155 48 250 0.0 0.0 0.00 0.00 0.03 99 1016.3
20260906160544 48 213 0.0 0.0 0.00 0.00 0.03 99 1016.3
20260906160046 48 180 0.0 0.0 0.00 0.00 0.03 99 1016.3
20260906155442 48 155 0.0 0.0 0.00 0.00 0.03 99 1016.3
20260906154950 48 158 0.0 0.0 0.00 0.00 0.03 99 1016.3
20260906154353 48 105 1.0 1.0 0.00 0.00 0.03 99 1016.3
20260906153800 48 115 0.0 1.0 0.00 0.00 0.03 99 1015.9
20260906153211 48 229 0.0 0.0 0.00 0.00 0.03 99 1016.3
20260906152640 48 172 0.0 0.0 0.00 0.00 0.03 99 1016.3
20260906152144 48 169 0.0 0.0 0.00 0.00 0.03 99 1015.9
20260906151555 48 169 0.0 0.0 0.00 0.00 0.03 99 1016.3
20260906151040 48 223 0.0 1.0 0.00 0.00 0.03 99 1015.9
20260906150539 48 230 0.0 0.0 0.00 0.00 0.03 99 1016.3
20260906145951 48 221 0.0 0.0 0.00 0.00 0.03 99 1016.3
20260906145441 48 241 0.0 0.0 0.00 0.00 0.03 99 1016.3
20260906144927 48 210 0.0 0.0 0.00 0.00 0.03 99 1016.3
20260906144349 48 161 0.0 0.0 0.00 0.00 0.03 99 1016.3
20260906143840 48 169 0.0 0.0 0.00 0.00 0.03 99 1016.3
20260906143338 48 177 0.0 0.0 0.00 0.00 0.03 99 1016.3
20260906142803 48 224 0.0 0.0 0.00 0.00 0.03 99 1015.9
20260906142240 48 242 0.0 0.0 0.00 0.00 0.03 99 1016.3
20260906141740 47 227 0.0 0.0 0.00 0.00 0.03 99 1016.3
20260906141212 47 276 1.0 1.0 0.00 0.00 0.03 99 1016.3
20260906140635 47 251 0.0 1.0 0.00 0.00 0.03 99 1016.3
20260906135535 47 238 0.0 0.0 0.00 0.00 0.03 99 1016.3
20260906135014 47 233 0.0 0.0 0.00 0.00 0.03 99 1016.3
20260906134454 47 233 0.0 0.0 0.00 0.00 0.03 99 1015.9
20260906133934 47 229 0.0 0.0 0.00 0.00 0.03 99 1016.3
20260906133419 47 233 0.0 0.0 0.00 0.00 0.03 99 1016.3
20260906132913 47 229 0.0 0.0 0.00 0.00 0.03 99 1016.3
20260906132352 47 229 0.0 0.0 0.00 0.00 0.03 99 1016.3
20260906131844 47 251 0.0 0.0 0.00 0.00 0.03 99 1016.3
20260906131336 47 240 0.0 0.0 0.00 0.00 0.03 99 1016.3
20260906130822 47 242 0.0 1.0 0.00 0.00 0.03 99 1016.6
20260906130313 47 254 1.0 1.0 0.00 0.00 0.03 99 1016.3
20260906125750 47 278 0.0 1.0 0.00 0.00 0.03 99 1016.6
20260906125239 47 222 0.0 0.0 0.00 0.00 0.03 99 1016.6
20260906124730 47 188 0.0 0.0 0.00 0.00 0.03 99 1016.6
20260906124224 47 156 0.0 0.0 0.00 0.00 0.03 99 1016.6
20260906123714 47 175 0.0 0.0 0.00 0.00 0.02 99 1016.6
20260906123215 47 210 0.0 0.0 0.00 0.00 0.02 99 1016.6
20260906122714 47 219 0.0 0.0 0.00 0.00 0.02 99 1016.6
20260906122215 47 245 1.0 1.0 0.00 0.00 0.01 99 1016.6
20260906121714 47 248 0.0 0.0 0.00 0.00 0.01 99 1016.9
20260906121212 47 170 0.0 0.0 0.00 0.00 0.01 99 1016.9
20260906120738 47 175 0.0 0.0 0.00 0.00 0.01 99 1016.9
20260906120214 47 131 0.0 0.0 0.00 0.00 0.01 99 1016.9
20260906115737 47 140 0.0 0.0 0.00 0.00 0.00 99 1017.3
20260906115239 47 171 0.0 0.0 0.00 0.00 0.00 99 1017.3
20260906114738 47 213 0.0 0.0 0.00 0.00 0.00 99 1017.3
20260906114301 47 227 0.0 0.0 0.00 0.00 0.00 99 1017.6
20260906113803 47 235 0.0 0.0 0.00 0.00 0.00 99 1017.6
20260906113301 47 228 0.0 0.0 0.00 0.00 0.00 99 1017.6
20260906112801 47 232 0.0 1.0 0.00 0.00 0.00 99 1017.3
20260906112306 47 228 0.0 0.0 0.00 0.00 0.00 99 1017.6
20260906111801 48 260 0.0 1.0 0.00 0.00 0.00 99 1017.6
20260906111301 48 252 0.0 0.0 0.00 0.00 0.00 99 1017.6
20260906110801 48 237 1.0 1.0 0.00 0.00 0.00 99 1017.6
20260906110300 48 246 0.0 1.0 0.00 0.00 0.00 99 1017.6
20260906105800 48 233 0.0 0.0 0.00 0.00 0.00 99 1017.6
20260906105301 48 260 0.0 1.0 0.00 0.00 0.00 99 1017.6
20260906104759 48 220 0.0 0.0 0.00 0.00 0.00 99 1017.6
20260906104259 48 230 0.0 0.0 0.00 0.00 0.00 99 1017.9
20260906103759 48 203 0.0 0.0 0.00 0.00 0.00 99 1017.6
20260906103302 48 194 0.0 0.0 0.00 0.00 0.00 99 1017.6
20260906102759 48 220 0.0 0.0 0.00 0.00 0.00 99 1017.6
20260906102259 48 232 0.0 0.0 0.00 0.00 0.00 99 1017.3
20260906101758 48 208 0.0 0.0 0.00 0.00 0.00 99 1017.3
20260906101304 48 255 0.0 0.0 0.00 0.00 0.00 99 1017.3
20260906100759 48 228 0.0 0.0 0.00 0.00 0.00 99 1017.6
20260906100258 48 222 0.0 0.0 0.00 0.00 0.00 99 1017.6
20260906095757 48 221 0.0 0.0 0.00 0.00 0.00 99 1017.6
20260906095257 48 167 0.0 0.0 0.00 0.00 0.00 99 1017.3
20260906094756 48 170 0.0 0.0 0.00 0.00 0.00 99 1017.6
20260906094255 48 208 0.0 0.0 0.00 0.00 0.00 99 1017.3
20260906093755 48 223 0.0 0.0 0.00 0.00 0.00 99 1017.6
20260906093254 48 223 0.0 0.0 0.00 0.00 0.00 99 1017.6
20260906092754 48 228 0.0 0.0 0.00 0.00 0.00 99 1017.9
20260906092253 48 247 0.0 0.0 0.00 0.00 0.00 99 1017.6
20260906091754 48 247 0.0 1.0 0.00 0.00 0.00 99 1017.6
20260906091253 48 255 0.0 0.0 0.00 0.00 0.00 99 1017.6
20260906090752 48 226 0.0 0.0 0.00 0.00 0.00 99 1017.6
20260906090253 48 227 0.0 0.0 0.00 0.00 0.00 99 1017.9
20260906085754 49 215 0.0 0.0 0.00 0.00 0.00 99 1017.9
20260906085252 49 199 0.0 0.0 0.00 0.00 0.00 99 1017.9
20260906084751 49 199 0.0 0.0 0.00 0.00 0.00 99 1017.9
20260906084249 49 199 0.0 0.0 0.00 0.00 0.00 99 1017.9
20260906083750 49 188 0.0 0.0 0.00 0.00 0.00 99 1017.9
20260906083250 49 179 0.0 0.0 0.00 0.00 0.00 99 1018.3
20260906082749 49 180 0.0 0.0 0.00 0.00 0.00 99 1018.3
20260906082248 49 180 0.0 0.0 0.00 0.00 0.00 99 1018.3
20260906081747 49 180 0.0 0.0 0.00 0.00 0.00 99 1018.6
20260906081247 49 172 0.0 0.0 0.00 0.00 0.00 99 1018.6
20260906080747 49 151 0.0 0.0 0.00 0.00 0.00 99 1018.6
20260906080250 49 203 0.0 0.0 0.00 0.00 0.00 99 1018.6
20260906075748 49 201 0.0 0.0 0.00 0.00 0.00 99 1018.6
20260906075248 49 197 0.0 0.0 0.00 0.00 0.00 99 1018.3
20260906074747 49 217 0.0 0.0 0.00 0.00 0.00 99 1018.3
20260906074247 49 227 0.0 0.0 0.00 0.00 0.00 99 1018.3
20260906073747 49 205 0.0 0.0 0.00 0.00 0.00 99 1018.3
20260906073245 49 245 0.0 1.0 0.00 0.00 0.00 99 1018.3
20260906072746 49 215 0.0 0.0 0.00 0.00 0.00 99 1018.6
20260906072245 49 177 0.0 0.0 0.00 0.00 0.00 99 1018.3
20260906071744 49 177 0.0 0.0 0.00 0.00 0.00 99 1018.6
20260906071245 49 177 0.0 0.0 0.00 0.00 0.00 99 1018.6
20260906070743 49 177 0.0 0.0 0.00 0.00 0.00 99 1019.0
20260906070245 49 215 0.0 0.0 0.00 0.00 0.00 99 1018.6
20260906065744 49 198 0.0 0.0 0.00 0.00 0.00 99 1018.6
20260906065243 49 172 0.0 0.0 0.00 0.00 0.00 99 1018.6
20260906064743 49 171 0.0 0.0 0.00 0.00 0.00 99 1018.6
20260906064242 49 170 0.0 0.0 0.00 0.00 0.00 99 1018.6
20260906063742 49 200 0.0 0.0 0.00 0.00 0.00 99 1019.0
20260906063241 49 200 0.0 0.0 0.00 0.00 0.00 99 1019.0
20260906062742 49 194 0.0 0.0 0.00 0.00 0.00 99 1018.6
20260906062241 49 190 0.0 0.0 0.00 0.00 0.00 99 1019.0
20260906061741 49 184 0.0 0.0 0.00 0.00 0.00 99 1018.6
20260906061240 49 174 0.0 0.0 0.00 0.00 0.00 99 1018.6
20260906060742 49 164 0.0 0.0 0.00 0.00 0.00 99 1018.6
20260906060242 49 178 0.0 0.0 0.00 0.00 0.00 99 1018.6
20260906055740 49 179 0.0 0.0 0.00 0.00 0.25 99 1018.6
20260906055241 49 182 0.0 0.0 0.00 0.00 0.25 99 1018.6
20260906054741 49 217 0.0 0.0 0.00 0.00 0.25 99 1018.6
20260906054241 49 221 0.0 0.0 0.00 0.00 0.25 99 1018.6
20260906053739 49 226 0.0 0.0 0.00 0.00 0.25 99 1018.6
20260906053240 49 244 0.0 0.0 0.00 0.00 0.25 99 1018.6
20260906052739 49 231 1.0 1.0 0.00 0.00 0.25 99 1018.6
20260906052240 49 218 0.0 0.0 0.00 0.00 0.25 99 1019.0
20260906051740 49 237 1.0 1.0 0.00 0.00 0.25 99 1018.6
20260906051238 49 230 0.0 0.0 0.00 0.00 0.25 99 1018.6
20260906050737 49 244 1.0 1.0 0.00 0.00 0.25 99 1018.6
20260906050238 49 259 1.0 1.0 0.00 0.00 0.25 99 1018.6
20260906045737 49 274 1.0 2.0 0.00 0.00 0.25 99 1019.0
20260906045236 49 279 0.0 1.0 0.00 0.00 0.25 99 1019.0
20260906044736 49 240 0.0 0.0 0.00 0.00 0.25 99 1019.0
20260906044236 49 226 0.0 0.0 0.00 0.00 0.25 99 1019.0
20260906043735 49 225 0.0 0.0 0.00 0.00 0.25 99 1019.0
20260906043236 49 214 0.0 0.0 0.00 0.00 0.25 99 1019.0
20260906042735 49 244 0.0 1.0 0.00 0.00 0.25 99 1019.0
20260906042235 49 224 0.0 0.0 0.00 0.00 0.25 99 1019.0
20260906041734 49 226 0.0 0.0 0.00 0.00 0.25 99 1019.0
20260906041233 49 221 0.0 0.0 0.00 0.00 0.25 99 1019.0
20260906040735 49 232 0.0 0.0 0.00 0.00 0.25 99 1018.6
20260906040234 49 217 0.0 0.0 0.00 0.00 0.25 99 1019.0
20260906035733 49 220 0.0 0.0 0.00 0.00 0.25 99 1019.0
20260906035233 48 223 0.0 0.0 0.00 0.00 0.25 99 1018.6
20260906034732 48 212 0.0 0.0 0.00 0.00 0.25 99 1018.6
20260906034233 48 220 0.0 0.0 0.00 0.00 0.25 99 1018.6
20260906033733 48 212 0.0 0.0 0.00 0.00 0.25 99 1018.6
20260906033231 48 216 0.0 0.0 0.00 0.00 0.25 99 1018.3
20260906032732 48 204 0.0 0.0 0.00 0.00 0.25 99 1018.3
20260906032232 48 124 0.0 0.0 0.00 0.00 0.25 99 1018.3
20260906031732 48 169 0.0 0.0 0.00 0.00 0.25 99 1018.3
20260906031233 49 179 0.0 0.0 0.00 0.00 0.25 99 1018.3
20260906030730 49 181 0.0 0.0 0.00 0.00 0.25 99 1018.3
20260906030231 49 221 0.0 0.0 0.00 0.00 0.25 99 1018.3
20260906025730 49 233 0.0 0.0 0.00 0.00 0.25 99 1017.9
20260906025231 49 240 0.0 1.0 0.00 0.00 0.25 99 1017.9
20260906024732 49 190 0.0 0.0 0.00 0.00 0.25 99 1017.9
20260906024230 49 234 0.0 0.0 0.00 0.00 0.25 99 1017.9
20260906023730 49 219 0.0 0.0 0.00 0.00 0.25 99 1017.9
20260906023229 49 185 0.0 0.0 0.00 0.00 0.25 99 1017.9
20260906022730 49 193 0.0 0.0 0.00 0.00 0.25 99 1017.9
20260906022229 49 278 1.0 2.0 0.00 0.00 0.25 99 1017.9
20260906021728 49 192 0.0 0.0 0.00 0.00 0.25 99 1017.9
20260906021229 49 218 0.0 0.0 0.00 0.00 0.25 99 1018.3
20260906020729 49 253 1.0 1.0 0.00 0.00 0.25 99 1018.3
20260906020228 49 245 0.0 1.0 0.00 0.00 0.25 99 1018.3
20260906015729 49 227 0.0 0.0 0.00 0.00 0.25 99 1018.3
20260906015230 49 280 0.0 1.0 0.00 0.00 0.24 99 1018.3
20260906014729 49 227 0.0 0.0 0.00 0.00 0.24 99 1018.3
20260906014229 49 253 1.0 1.0 0.00 0.00 0.24 99 1018.6
20260906013726 49 236 0.0 1.0 0.00 0.00 0.24 99 1018.6
20260906013227 49 254 0.0 0.0 0.00 0.00 0.24 99 1018.3
20260906012727 49 209 0.0 0.0 0.00 0.00 0.24 99 1018.3
20260906012228 49 200 0.0 0.0 0.00 0.00 0.24 99 1018.3
20260906011727 49 208 0.0 0.0 0.00 0.00 0.24 99 1018.3
20260906011228 49 252 0.0 0.0 0.00 0.00 0.24 99 1018.3
20260906010725 49 315 0.0 1.0 0.00 0.00 0.24 99 1018.3
20260906010226 49 35 0.0 1.0 0.00 0.00 0.24 99 1017.9
20260906005725 49 32 0.0 0.0 0.00 0.00 0.24 99 1018.3
20260906005224 49 82 0.0 1.0 0.00 0.00 0.24 99 1017.9
20260906004731 49 191 0.0 0.0 0.00 0.00 0.24 99 1018.3
20260906004225 49 338 1.0 2.0 0.00 0.00 0.24 99 1017.9
20260906003724 50 120 0.0 1.0 0.00 0.00 0.24 99 1017.9
20260906003225 50 142 0.0 0.0 0.00 0.00 0.23 99 1017.9
20260906002724 50 105 0.0 1.0 0.00 0.00 0.23 99 1018.3
20260906002224 50 208 0.0 0.0 0.00 0.00 0.23 99 1018.3
20260906001723 49 136 0.0 1.0 0.00 0.00 0.23 99 1017.9
20260906001224 49 194 0.0 0.0 0.00 0.00 0.23 99 1017.9
20260906000724 49 178 0.0 0.0 0.00 0.00 0.23 99 1017.9
20260906000223 49 66 0.0 1.0 0.00 0.00 0.22 99 1017.9
20260905235723 49 199 0.0 0.0 0.00 0.00 0.22 99 1017.9
20260905235223 49 212 0.0 0.0 0.00 0.00 0.22 99 1018.3
20260905234723 49 124 0.0 0.0 0.00 0.00 0.22 99 1018.3
20260905234223 49 54 1.0 2.0 0.00 0.00 0.22 99 1018.3
20260905233722 49 195 0.0 0.0 0.00 0.00 0.21 99 1017.9
20260905233222 49 190 1.0 2.0 0.00 0.00 0.21 99 1017.9
20260905232723 49 207 0.0 0.0 0.00 0.00 0.21 99 1017.9
20260905232222 49 81 1.0 1.0 0.00 0.00 0.20 99 1017.9
20260905231722 49 56 2.0 2.0 0.00 0.00 0.20 99 1017.9
20260905231237 49 261 0.0 1.0 0.00 0.00 0.19 99 1017.9
20260905230742 49 293 0.0 0.0 0.00 0.00 0.19 99 1017.9
20260905230237 49 265 1.0 2.0 0.00 0.00 0.19 99 1017.9
20260905225722 49 250 1.0 2.0 0.00 0.00 0.18 99 1017.9
20260905225222 49 190 0.0 0.0 0.00 0.00 0.18 99 1017.9
20260905224722 49 315 1.0 2.0 0.00 0.00 0.17 99 1017.9
20260905224222 49 216 0.0 1.0 0.00 0.00 0.17 99 1018.3
20260905223720 49 242 2.0 3.0 0.00 0.00 0.17 99 1017.9
20260905223231 49 256 0.0 1.0 0.00 0.00 0.17 99 1018.3
20260905222759 49 293 0.0 1.0 0.00 0.00 0.17 99 1018.3
20260905222230 49 229 0.0 1.0 0.00 0.00 0.16 99 1018.3
20260905221725 49 251 1.0 1.0 0.00 0.00 0.16 99 1018.3
20260905221230 49 231 0.0 0.0 0.00 0.00 0.16 99 1018.3
20260905220731 49 274 0.0 1.0 0.00 0.00 0.16 99 1018.3
20260905220229 49 271 0.0 1.0 0.00 0.00 0.16 99 1018.3
20260905215731 49 29 0.0 1.0 0.00 0.00 0.15 99 1018.3
20260905215229 49 201 0.0 0.0 0.00 0.00 0.15 99 1018.3
20260905214731 49 313 1.0 1.0 0.00 0.00 0.15 99 1018.3
20260905214229 49 308 0.0 1.0 0.00 0.00 0.15 99 1018.3
20260905213728 49 69 1.0 1.0 0.00 0.00 0.14 99 1018.3
20260905213222 49 9 1.0 1.0 0.00 0.00 0.14 99 1018.3
20260905212729 49 341 1.0 2.0 0.00 0.00 0.13 99 1018.3
20260905212228 49 251 1.0 2.0 0.00 0.00 0.13 99 1018.3
20260905211729 49 276 0.0 1.0 0.00 0.00 0.13 99 1018.3
20260905211228 49 207 0.0 0.0 0.00 0.00 0.12 99 1018.3
20260905210728 49 145 0.0 1.0 0.00 0.00 0.11 99 1018.3
20260905210228 49 128 1.0 2.0 0.00 0.00 0.11 99 1018.3
20260905205727 49 180 0.0 0.0 0.00 0.00 0.10 99 1018.3
20260905205226 49 213 0.0 1.0 0.00 0.00 0.10 99 1018.3
20260905204726 49 34 1.0 1.0 0.00 0.00 0.09 99 1018.3
20260905204228 49 227 0.0 0.0 0.00 0.00 0.09 99 1018.3
20260905203726 49 115 2.0 3.0 0.00 0.00 0.09 99 1018.3
20260905203215 49 237 0.0 1.0 0.00 0.00 0.08 99 1018.3
20260905202714 49 230 1.0 1.0 0.00 0.00 0.08 99 1018.3
20260905202215 49 247 2.0 3.0 0.00 0.00 0.08 99 1018.3
20260905201714 48 21 0.0 2.0 0.00 0.00 0.08 99 1018.3
20260905201213 48 235 2.0 3.0 0.00 0.00 0.08 99 1018.3
20260905200715 48 198 0.0 0.0 0.00 0.00 0.08 99 1018.3
20260905200214 48 246 0.0 1.0 0.00 0.00 0.08 99 1018.3
20260905195714 48 274 1.0 2.0 0.00 0.00 0.08 99 1018.3
20260905195213 48 314 0.0 1.0 0.00 0.00 0.07 99 1018.6